Moses Lake, WA

4:35 AM PDT on August 27, 2016 (GMT -0700)
Grant County International

Weather History for KMWH - April, 2013

Change the Weather History Date:

Wednesday, April 10, 2013

  Actual Average Record
Temperature  
Mean Temperature 57 °F 49 °F  
Max Temperature 69 °F 62 °F 78 °F (1985)
Min Temperature 45 °F 36 °F 28 °F (1999)
Degree Days  
Heating Degree Days 8 16  
Month to date heating degree days 112 170  
Since 1 July heating degree days 4843 5342  
Cooling Degree Days 0 0  
Month to date cooling degree days 0 0  
Year to date cooling degree days 0 0  
Growing Degree Days 7 (Base 50)    
Moisture  
Dew Point 35 °F    
Average Humidity 48    
Maximum Humidity 66    
Minimum Humidity 29    
Precipitation  
Precipitation T in 0.03 in 0.33 in (1998)
Month to date precipitation 0.31 0.25  
Year to date precipitation 1.33 2.97  
Sea Level Pressure  
Sea Level Pressure 29.99 in    
Wind  
Wind Speed 14 mph (SSW)    
Max Wind Speed 41 mph    
Max Gust Speed 48 mph    
Visibility 10 miles    
Events      
T = Trace of Precipitation, MM = Missing Value Source: NWS Daily Summary

Daily Weather History Graph

Daily Weather History Graph

Search for Another Location

Airport or City:

Trip Planner

Search our weather history database for the weather conditions in past years. The results will help you decide how hot, cold, wet, or windy it might be!

Date:

Astronomy

Apr. 10, 2013 Rise Set
Actual Time 6:17 AM PDT 7:39 PM PDT
Civil Twilight 5:46 AM PDT 8:11 PM PDT
Nautical Twilight 5:08 AM PDT 8:49 PM PDT
Astronomical Twilight 4:27 AM PDT 9:31 PM PDT
Moon 6:14 AM PDT (4/10) 8:25 PM PDT (4/10)
Length of Visible Light 14h 25m
Length of Day
13h 21m
New Moon, 0% of the Moon is Illuminated
Apr 10
New Moon
Apr 18
First Quarter
Apr 25
Full
May 2
Last Quarter
May 9
New

Hourly Weather History & Observations

Time (PDT) Temp. Dew Point Humidity Pressure Visibility Wind Dir Wind Speed Gust Speed Precip Events Conditions
12:52 AM 52.0 °F 36.0 °F 54% 30.15 in 10.0 mi SSE 9.2 mph - N/A   Partly Cloudy
1:52 AM 48.9 °F 36.0 °F 61% 30.13 in 10.0 mi SSE 8.1 mph - N/A   Clear
2:52 AM 48.0 °F 37.0 °F 66% 30.12 in 10.0 mi SSE 5.8 mph - N/A   Partly Cloudy
3:52 AM 48.9 °F 36.0 °F 61% 30.09 in 10.0 mi SSE 10.4 mph - N/A   Clear
4:52 AM 46.9 °F 36.0 °F 66% 30.07 in 10.0 mi SE 8.1 mph - N/A   Clear
5:52 AM 46.9 °F 36.0 °F 66% 30.05 in 10.0 mi SE 9.2 mph - N/A   Partly Cloudy
6:52 AM 46.9 °F 36.0 °F 66% 30.02 in 10.0 mi SSE 9.2 mph - N/A   Clear
7:52 AM 48.9 °F 36.0 °F 61% 30.01 in 10.0 mi South 9.2 mph - N/A   Clear
8:52 AM 50.0 °F 36.0 °F 59% 29.99 in 10.0 mi South 10.4 mph - N/A   Clear
9:52 AM 53.1 °F 37.0 °F 55% 29.92 in 10.0 mi South 11.5 mph - N/A   Clear
10:52 AM 57.0 °F 39.0 °F 51% 29.88 in 10.0 mi South 16.1 mph 23.0 mph N/A   Clear
11:52 AM 60.1 °F 42.1 °F 51% 29.89 in 10.0 mi SSW 11.5 mph - N/A   Overcast
12:52 PM 66.0 °F 44.1 °F 45% 29.85 in 10.0 mi SW 23.0 mph 31.1 mph 0.00 in   Mostly Cloudy
1:52 PM 68.0 °F 36.0 °F 31% 29.85 in 10.0 mi West 29.9 mph 41.4 mph N/A   Partly Cloudy
2:52 PM 66.9 °F 35.1 °F 31% 29.86 in 8.0 mi West 32.2 mph 44.9 mph N/A   Scattered Clouds
3:52 PM 66.9 °F 36.0 °F 32% 29.87 in 10.0 mi West 15.0 mph 29.9 mph N/A   Clear
4:52 PM 66.9 °F 33.1 °F 28% 29.90 in 10.0 mi West 19.6 mph 27.6 mph N/A   Clear
5:52 PM 64.0 °F 32.0 °F 30% 29.94 in 10.0 mi NNW 21.9 mph 28.8 mph N/A   Clear
6:52 PM 59.0 °F 30.9 °F 35% 29.97 in 10.0 mi NW 16.1 mph 24.2 mph N/A   Clear
7:52 PM 55.9 °F 28.0 °F 34% 29.99 in 10.0 mi WNW 13.8 mph - N/A   Clear
8:52 PM 53.1 °F 28.0 °F 38% 30.02 in 10.0 mi WNW 12.7 mph - N/A   Clear
9:52 PM 51.1 °F 30.0 °F 44% 30.04 in 10.0 mi West 13.8 mph - N/A   Clear
10:52 PM 46.9 °F 33.1 °F 59% 30.07 in 10.0 mi SE 6.9 mph - N/A   Clear
11:52 PM 46.9 °F 33.1 °F 59% 30.07 in 10.0 mi South 5.8 mph - N/A   Clear